This is the latest recevied weather packets stored in our database for station/object HK4DAP-11. If no packets are shown the sender has not sent any weather packets the latest 10 day(s).
| Time | Temp. | Humidity | Pressure | Rain* | Wind** | Luminosity | Snow |
|---|---|---|---|---|---|---|---|
| 1777700967 | 25° C | 79% | 851.4 hPa | - | - | - | - |
| 1777700667 | 25° C | 79% | 851.4 hPa | - | - | - | - |
| 1777700366 | 25° C | 79% | 851.4 hPa | - | - | - | - |
| 1777700066 | 25° C | 78% | 851.2 hPa | - | - | - | - |
| 1777699765 | 25° C | 77% | 851.3 hPa | - | - | - | - |
| 1777699468 | 25° C | 76% | 851.2 hPa | - | - | - | - |
| 1777699166 | 25° C | 75% | 851.3 hPa | - | - | - | - |
| 1777698869 | 25° C | 74% | 851.1 hPa | - | - | - | - |
| 1777698567 | 25° C | 72% | 851.1 hPa | - | - | - | - |
| 1777698271 | 25° C | 69% | 851 hPa | - | - | - | - |
| 1777697965 | 26.67° C | 64% | 850.9 hPa | - | - | - | - |
| 1777697665 | 26.67° C | 64% | 850.8 hPa | - | - | - | - |
| 1777697364 | 26.67° C | 64% | 850.8 hPa | - | - | - | - |
| 1777697064 | 25° C | 71% | 850.9 hPa | - | - | - | - |
| 1777696764 | 25° C | 70% | 850.8 hPa | - | - | - | - |
| 1777696464 | 24.44° C | 76% | 850.8 hPa | - | - | - | - |
| 1777696164 | 24.44° C | 79% | 851 hPa | - | - | - | - |
| 1777695864 | 24.44° C | 83% | 851.1 hPa | - | - | - | - |
| 1777695565 | 24.44° C | 82% | 851.1 hPa | - | - | - | - |
| 1777695263 | 24.44° C | 83% | 851 hPa | - | - | - | - |
| 1777694965 | 24.44° C | 84% | 851 hPa | - | - | - | - |
| 1777694663 | 24.44° C | 85% | 851.1 hPa | - | - | - | - |
| 1777694363 | 25° C | 84% | 851.1 hPa | - | - | - | - |
| 1777694063 | 25° C | 83% | 850.8 hPa | - | - | - | - |
| 1777693763 | 25° C | 84% | 851 hPa | - | - | - | - |
* Rain since midnight (hover to see other rain measurements)
** Current wind speed in m/s (hover to see current wind gust speed)